Farnborough, United Kingdom

6:00 PM BST on September 30, 2016 (GMT +0100)
Farnborough

Weather History for EGLF - October, 2013

Change the Weather History Date:

Wednesday, October 9, 2013

  Actual Average (EGLL) Record (EGLL)
Temperature  
Mean Temperature 55 °F -  
Max Temperature 62 °F 60 °F 69 °F (2006)
Min Temperature 47 °F 48 °F 41 °F (2008)
Degree Days  
Heating Degree Days 10    
Growing Degree Days 5 (Base 50)    
Moisture  
Dew Point 49 °F    
Average Humidity 77    
Maximum Humidity 100    
Minimum Humidity 57    
Precipitation  
Precipitation 0.00 in - - ()
Sea Level Pressure  
Sea Level Pressure 30.10 in    
Wind  
Wind Speed 8 mph ()    
Max Wind Speed 21 mph    
Max Gust Speed -    
Visibility 6.7 miles    
Events      
Averages and records for this station are not official NWS values.
T = Trace of Precipitation, MM = Missing Value Source: Averaged Metar Reports

Daily Weather History Graph

Daily Weather History Graph

Search for Another Location

Airport or City:

Trip Planner

Search our weather history database for the weather conditions in past years. The results will help you decide how hot, cold, wet, or windy it might be!

Date:

Astronomy

Oct. 09, 2013 Rise Set
Actual Time 7:16 AM BST 6:22 PM BST
Civil Twilight 6:43 AM BST 6:56 PM BST
Nautical Twilight 6:05 AM BST 7:34 PM BST
Astronomical Twilight 5:26 AM BST 8:13 PM BST
Moon 12:25 PM BST (10/9) 9:15 PM BST (10/9)
Length of Visible Light 12h 12m
Length of Day
11h 06m
Waxing Crescent, 23% of the Moon is Illuminated
Oct 9
Waxing Crescent
Oct 12
First Quarter
Oct 19
Full
Oct 27
Last Quarter
Nov 3
New

Hourly Weather History & Observations

Time (BST) Temp. Dew Point Humidity Pressure Visibility Wind Dir Wind Speed Gust Speed Precip Events Conditions
12:50 AM 58 °F 55 °F 86% 30.26 in 13 mi West 3.5 mph - -   Mostly Cloudy
6:50 AM 55 °F 53 °F 90% 30.20 in 5 mi West 3.5 mph - -   Overcast
6:50 AM 55.4 °F 55.4 °F 100% 30.18 in 5.0 mi West 4.6 mph - N/A   Overcast
7:20 AM 55.4 °F 55.4 °F 100% 30.18 in 6.2 mi SW 4.6 mph - N/A   Overcast
7:50 AM 55.4 °F 55.4 °F 100% 30.18 in 6.2 mi WSW 5.8 mph - N/A   Overcast
8:20 AM 55.4 °F 55.4 °F 100% 30.15 in 5.0 mi SW 5.8 mph - N/A   Mostly Cloudy
8:50 AM 55.4 °F 55.4 °F 100% 30.18 in 5.6 mi WSW 5.8 mph - N/A   Mostly Cloudy
9:20 AM 55.4 °F 55.4 °F 100% 30.18 in 5.6 mi West 6.9 mph - N/A   Mostly Cloudy
9:50 AM 58 °F 54 °F 82% 30.18 in 9 mi West 8.1 mph - -   Partly Cloudy
9:50 AM 57.2 °F 57.2 °F 100% 30.18 in 5.6 mi West 8.1 mph - N/A   Mostly Cloudy
10:20 AM 57.2 °F 55.4 °F 94% 30.15 in 6.2 mi West 8.1 mph - N/A   Scattered Clouds
10:50 AM 59.0 °F 57.2 °F 94% 30.15 in 6.2 mi West 6.9 mph - N/A   Scattered Clouds
11:20 AM 62.6 °F 55.4 °F 77% 30.12 in 6.2 mi WSW 8.1 mph - N/A   Scattered Clouds
11:50 AM 59.0 °F 53.6 °F 82% 30.12 in 6.2 mi West 10.4 mph - N/A   Scattered Clouds
12:20 PM 60.8 °F 53.6 °F 77% 30.12 in 6.2 mi West 11.5 mph - N/A   Mostly Cloudy
12:50 PM 60 °F 50 °F 60% 30.11 in 22 mi WNW 11.5 mph - -   Mostly Cloudy
12:50 PM 60.8 °F 51.8 °F 72% 30.09 in 6.2 mi West 10.4 mph - N/A   Mostly Cloudy
1:20 PM 60.8 °F 51.8 °F 72% 30.09 in 6.2 mi West 10.4 mph - N/A   Mostly Cloudy
1:50 PM 60.8 °F 50.0 °F 68% 30.06 in 6.2 mi WNW 10.4 mph - N/A   Mostly Cloudy
2:20 PM 59.0 °F 50.0 °F 72% 30.06 in 6.2 mi WNW 9.2 mph - N/A   Scattered Clouds
2:50 PM 59.0 °F 48.2 °F 67% 30.06 in 6.2 mi WNW 12.7 mph - N/A   Scattered Clouds
3:20 PM 59.0 °F 48.2 °F 67% 30.06 in 6.2 mi WNW 11.5 mph - N/A   Scattered Clouds
3:50 PM 57 °F 46 °F 57% 30.06 in 28 mi NW 12.7 mph - -   Mostly Cloudy
3:50 PM 57.2 °F 46.4 °F 67% 30.06 in 6.2 mi NW 12.7 mph - N/A   Scattered Clouds
4:20 PM 57.2 °F 46.4 °F 67% 30.04 in 6.2 mi NW 11.5 mph - N/A   Partly Cloudy
4:50 PM 55.4 °F 44.6 °F 67% 30.04 in 6.2 mi WNW 11.5 mph - N/A   Partly Cloudy
5:20 PM 55.4 °F 46.4 °F 72% 30.01 in 6.2 mi WNW 11.5 mph - N/A   Partly Cloudy
5:50 PM 55.4 °F 44.6 °F 67% 30.01 in 6.2 mi WNW 10.4 mph - N/A   Partly Cloudy
6:20 PM 53.6 °F 44.6 °F 72% 30.01 in 6.2 mi WNW 11.5 mph - N/A   Partly Cloudy
6:50 PM 54 °F 44 °F 60% 30.02 in 28 mi WNW 13.8 mph - -   Partly Cloudy
6:50 PM 53.6 °F 44.6 °F 72% 30.01 in 6.2 mi WNW 12.7 mph - N/A   Partly Cloudy
7:20 PM 53.6 °F 46.4 °F 77% 30.04 in 6.2 mi NW 13.8 mph - N/A   Scattered Clouds
7:50 PM 51.8 °F 42.8 °F 71% 30.04 in 6.2 mi NNW 18.4 mph - N/A   Scattered Clouds
8:20 PM 51.8 °F 37.4 °F 58% 30.04 in 6.2 mi NW 20.7 mph - N/A   Scattered Clouds
8:50 PM 50.0 °F 37.4 °F 62% 30.04 in 6.2 mi NW 15.0 mph - N/A   Scattered Clouds
9:20 PM 48.2 °F 37.4 °F 66% 30.06 in 6.2 mi NW 11.5 mph - N/A   Scattered Clouds
9:50 PM 47 °F 37 °F 60% 30.06 in 19 mi NW 10.4 mph - -